Wind_Speed
3 15 24 23 21 22 20 19 22 19 18 17 15 15 15 15 17 18 18 16 15 16
18 25 18 8 12 17 17 20 21 19 18 17 16 15 16 16 15 15 16 17 17 18
13 10 11 11 14 16 18 19 19 17 17 16 16 15 15 15 15 16 17 17 17 17
12 13 12 13 13 14 17 17 17 17 17 15 15 16 16 16 16 16 16 17 17 17
12 11 12 13 13 14 16 17 16 14 13 14 14 14 14 15 15 15 16 17 18 18
16 14 13 12 12 12 12 11 11 11 12 13 13 14 15 15 15 17 19 17 19 18
11 9 8 8 7 7 7 8 9 11 12 13 14 14 14 16 18 18 18 20 22 21
6 4 3 3 5 6 8 9 10 11 13 14 15 16 17 17 17 19 21 22 22 23
2 1 3 4 6 7 9 10 11 12 13 13 14 15 15 17 19 22 24 25 25 26
1 2 4 5 7 9 10 11 12 13 14 16 17 19 21 22 21 25 25 25 26 27
3 6 8 10 11 12 12 12 14 15 17 18 18 19 20 18 18 21 23 25 26 27
6 9 11 13 13 12 13 16 17 17 18 19 19 19 19 19 22 25 26 26 27 27
11 13 12 12 12 14 18 19 20 20 19 19 19 21 23 24 26 27 26 27 27 26
11 11 12 13 15 18 20 23 20 20 20 21 23 25 24 24 20 19 23 26 27 25
Wind_Direction
208 252 257 232 227 223 217 208 220 221 223 232 238 244 250 257 263 267 267 269 273 275
232 238 233 214 197 212 208 211 219 220 231 237 238 245 254 255 261 264 271 278 280 281
199 173 159 178 187 202 211 215 221 223 227 235 242 248 256 262 266 271 276 279 281 283
150 160 174 186 197 205 209 217 219 220 226 233 245 255 261 269 276 279 280 281 282 285
150 163 180 189 194 203 212 206 210 222 236 248 257 266 274 277 277 278 282 285 286 286
143 151 157 164 176 189 204 218 231 242 256 266 272 276 277 276 279 284 289 287 290 293
142 151 163 176 191 215 235 253 263 270 274 276 280 284 283 284 287 287 288 292 296 295
139 158 185 236 260 271 280 281 282 281 280 281 280 279 281 283 282 284 287 290 289 290
162 247 286 280 286 291 291 289 288 286 286 285 282 279 274 274 281 283 284 285 285 286
235 294 302 309 309 307 304 300 298 296 292 287 284 282 282 283 283 282 284 284 285 286
333 327 326 322 317 315 312 310 307 302 298 297 296 296 296 295 286 280 281 282 284 285
322 321 318 316 319 319 318 316 312 309 307 305 304 302 299 293 288 286 285 286 288 294
314 313 317 318 320 319 321 318 314 309 305 305 303 300 298 297 296 293 292 291 296 297
312 312 313 313 312 313 314 316 312 306 304 302 302 301 302 304 303 300 294 295 296 297
Height
1503 1498 1501 1506 1506 1513 1516 1522 1528 1530 1532 1534 1535 1536 1536 1536 1537 1538 1538 1538 1537 1537
1495 1498 1502 1502 1507 1516 1518 1522 1525 1526 1529 1532 1532 1532 1533 1533 1531 1533 1534 1534 1533 1534
1490 1496 1500 1506 1511 1515 1520 1521 1523 1523 1526 1528 1529 1529 1530 1529 1529 1530 1530 1530 1529 1528
1494 1498 1504 1509 1513 1517 1521 1520 1521 1521 1523 1524 1525 1526 1526 1525 1525 1526 1525 1525 1524 1524
1498 1502 1507 1511 1514 1517 1519 1518 1518 1519 1521 1522 1522 1522 1521 1521 1522 1521 1521 1520 1519 1519
1503 1506 1509 1512 1515 1517 1518 1516 1516 1517 1519 1519 1519 1519 1518 1518 1518 1517 1516 1516 1515 1514
1505 1508 1510 1512 1514 1515 1515 1514 1515 1516 1516 1516 1515 1515 1514 1514 1513 1512 1512 1511 1510 1508
1507 1509 1509 1510 1512 1513 1513 1514 1514 1513 1513 1512 1512 1511 1510 1510 1508 1507 1506 1505 1504 1503
1509 1509 1510 1513 1513 1513 1513 1512 1511 1511 1510 1510 1509 1509 1508 1506 1504 1502 1500 1498 1498 1497
1510 1510 1512 1512 1512 1512 1511 1510 1508 1507 1506 1505 1504 1503 1502 1500 1498 1495 1493 1492 1490 1489
1509 1510 1510 1510 1509 1508 1507 1506 1505 1503 1502 1500 1499 1498 1496 1494 1493 1489 1488 1486 1484 1482
1509 1509 1509 1508 1507 1506 1505 1503 1501 1499 1498 1496 1495 1492 1491 1489 1487 1484 1481 1479 1477 1475
1508 1507 1507 1506 1505 1503 1502 1500 1497 1495 1493 1490 1489 1487 1484 1482 1479 1476 1474 1472 1470 1468
1506 1506 1505 1504 1502 1501 1498 1496 1493 1491 1488 1486 1484 1481 1478 1475 1473 1470 1468 1465 1463 1461